TimeEST,TemperatureF,Dew PointF,Humidity,Sea Level PressureIn,VisibilityMPH,Wind Direction,Wind SpeedMPH,Gust SpeedMPH,PrecipitationIn,Events,Conditions,WindDirDegrees,DateUTC
12:56 AM,44.1,39.9,85,30.14,10.0,North,3.5,-,N/A,,Clear,350,2012-11-22 05:56:00
1:56 AM,45.0,39.0,80,30.14,10.0,NNW,4.6,-,N/A,,Clear,340,2012-11-22 06:56:00
2:56 AM,44.1,39.0,82,30.15,10.0,North,4.6,-,N/A,,Clear,350,2012-11-22 07:56:00
3:56 AM,44.1,37.9,79,30.14,10.0,North,8.1,-,N/A,,Clear,350,2012-11-22 08:56:00
4:56 AM,44.1,37.0,76,30.16,10.0,North,8.1,-,N/A,,Clear,360,2012-11-22 09:56:00
5:56 AM,42.1,36.0,79,30.17,10.0,North,5.8,-,N/A,,Clear,360,2012-11-22 10:56:00
6:56 AM,43.0,35.1,74,30.19,10.0,North,9.2,-,N/A,,Clear,360,2012-11-22 11:56:00
7:56 AM,44.1,36.0,73,30.22,10.0,North,9.2,-,N/A,,Clear,10,2012-11-22 12:56:00
8:56 AM,48.9,35.1,59,30.23,10.0,NNE,15.0,-,N/A,,Clear,20,2012-11-22 13:56:00
9:56 AM,54.0,35.1,49,30.23,10.0,NNE,13.8,-,N/A,,Clear,20,2012-11-22 14:56:00
10:56 AM,57.9,30.9,36,30.22,10.0,NNE,13.8,-,N/A,,Clear,20,2012-11-22 15:56:00
11:56 AM,60.1,30.0,32,30.20,10.0,North,11.5,-,N/A,,Clear,10,2012-11-22 16:56:00
12:56 PM,63.0,27.0,26,30.17,10.0,North,15.0,19.6,N/A,,Clear,10,2012-11-22 17:56:00
1:56 PM,64.9,26.1,23,30.15,10.0,NNE,13.8,-,N/A,,Clear,20,2012-11-22 18:56:00
2:56 PM,66.0,27.0,23,30.14,10.0,North,10.4,-,N/A,,Clear,10,2012-11-22 19:56:00
3:56 PM,64.0,26.1,24,30.15,10.0,North,11.5,-,N/A,,Clear,10,2012-11-22 20:56:00
4:56 PM,61.0,30.0,31,30.17,10.0,North,5.8,-,N/A,,Clear,10,2012-11-22 21:56:00
5:56 PM,54.0,37.0,53,30.17,10.0,North,4.6,-,N/A,,Clear,360,2012-11-22 22:56:00
6:56 PM,48.9,35.1,59,30.18,10.0,Calm,Calm,-,N/A,,Clear,0,2012-11-22 23:56:00
7:56 PM,45.0,37.9,76,30.19,10.0,Calm,Calm,-,N/A,,Clear,0,2012-11-23 00:56:00
8:56 PM,44.1,36.0,73,30.20,10.0,Calm,Calm,-,N/A,,Clear,0,2012-11-23 01:56:00
9:56 PM,44.1,37.9,79,30.20,10.0,Calm,Calm,-,N/A,,Clear,0,2012-11-23 02:56:00
10:56 PM,41.0,37.0,86,30.20,10.0,Calm,Calm,-,N/A,,Clear,0,2012-11-23 03:56:00
11:56 PM,41.0,37.0,86,30.19,10.0,Calm,Calm,-,N/A,,Clear,0,2012-11-23 04:56:00